Flag for Finland Weather past 2 weeks in Kemi, Finland

Now
48 °F

Fog.


Feels Like: 47 °F
Forecast: 48 / 62 °F
Wind: 3 mph from Northeast

Location: Kemi Airport

Current Time: Aug 29, 2015 at 6:58:40 AM

Latest Report: Aug 29, 2015 at 5:50 AM


Visibility: 0 mi

Pressure: 29.47 "Hg

Humidity: 100%

Dew point: 48 °F

Location of KemiLocation

Historic Weather in Kemi — Graph

°F

Kemi temperature yesterday

Maximum temperature yesterday: 59 °F (at 6:50 AM)
Minimum temperature yesterday: 54 °F (at 11:20 PM)
Average temperature yesterday: 57 °F

Past Weeks' High & Low Weather Summary

 TemperatureHumidityPressure
High73 °F (Aug 26, 4:50 PM)100% (Aug 16, 1:50 AM)30.39 "Hg (Aug 16, 1:50 AM)
Low36 °F (Aug 17, 4:50 AM)46% (Aug 14, 3:20 PM)29.47 "Hg (Aug 28, 11:20 PM)
Average59 °F86%30.13 "Hg
* Reported Aug 14 5:20 AM — Aug 29 5:20 AM, Kemi, Weather by CustomWeather, © 2015

Note: Actual official high and low records may vary slightly from our data, if they occured in-between our weather recording intervals... More about our weather records

Advertising

Kemi weather history for previous 24 hours

 ConditionsComfort  
Time TempWeatherWind HumidityBarometerVisibility
5:20 AM
Sat, Aug 29
48 °FFog.2 mph100%29.47 "Hg0 mi
4:50 AM50 °FFog.2 mph100%29.47 "Hg1 mi
4:20 AM50 °FFog.3 mph100%29.47 "Hg0 mi
3:50 AM50 °FFog.2 mph100%29.47 "Hg0 mi
3:20 AM50 °FFog.2 mph100%29.47 "Hg0 mi
2:50 AM52 °FFog.No wind100%29.47 "Hg0 mi
2:20 AM52 °FFog.No wind100%29.47 "Hg0 mi
1:50 AM52 °FFog.1 mph100%29.47 "Hg0 mi
1:20 AM54 °FFog.1 mph100%29.47 "Hg0 mi
12:50 AM54 °FFog.1 mph100%29.47 "Hg1 mi
11:50 PM
Fri, Aug 28
54 °FLight rain. Overcast.1 mph100%29.47 "HgN/A
11:20 PM54 °FLight rain. Low clouds.1 mph100%29.47 "HgN/A
10:20 PM55 °FLight rain. Mostly cloudy.No wind100%29.50 "HgN/A
9:50 PM55 °FLight rain. Mostly cloudy.No wind100%29.50 "HgN/A
9:20 PM55 °FRain. Overcast.2 mph100%29.50 "HgN/A
8:50 PM55 °FLight rain. Low clouds.6 mph100%29.50 "HgN/A
8:20 PM57 °FRain. Cloudy.5 mph94%29.50 "HgN/A
7:50 PM57 °FLight rain. Low clouds.7 mph100%29.50 "HgN/A
7:20 PM57 °FRain. Low clouds.12 mph100%29.50 "Hg5 mi
6:50 PM57 °FRain. Low clouds.13 mph100%29.50 "Hg4 mi
6:20 PM57 °FRain showers. Low clouds.10 mph100%29.50 "HgN/A
5:50 PM57 °FSprinkles. Low clouds.12 mph100%29.53 "HgN/A
5:20 PM57 °FSprinkles. Low clouds.12 mph100%29.53 "HgN/A
4:50 PM57 °FLight rain. Low clouds.13 mph100%29.53 "HgN/A
4:23 PM57 °FLight rain. Low clouds.13 mph100%29.53 "HgN/A
3:50 PM57 °FLight rain. Low clouds.14 mph94%29.56 "HgN/A
3:20 PM57 °FLight rain. Low clouds.14 mph94%29.56 "HgN/A
2:50 PM57 °FLight rain. Low clouds.13 mph94%29.56 "HgN/A
2:20 PM57 °FLight rain. Low clouds.13 mph94%29.56 "HgN/A
1:50 PM57 °FLight rain. Low clouds.13 mph94%29.59 "HgN/A
1:20 PM57 °FRain. Low clouds.14 mph94%29.59 "Hg4 mi
12:50 PM57 °FLight rain. Low clouds.12 mph100%29.59 "HgN/A
12:20 PM57 °FLight rain. Low clouds.13 mph100%29.59 "HgN/A
11:50 AM57 °FRain. Low clouds.12 mph100%29.62 "Hg4 mi
11:20 AM57 °FLight rain. Low clouds.14 mph100%29.62 "HgN/A
10:50 AM59 °FLight rain. Low clouds.15 mph94%29.62 "HgN/A
10:20 AM59 °FLight rain. Low clouds.15 mph94%29.62 "HgN/A
9:50 AM59 °FLight rain. Low clouds.15 mph94%29.62 "HgN/A
9:20 AM59 °FLight rain. Overcast.15 mph94%29.65 "HgN/A
8:50 AM57 °FLight rain. Overcast.14 mph100%29.65 "HgN/A
8:20 AM59 °FLight rain. Overcast.14 mph94%29.65 "HgN/A
7:50 AM59 °FPartly sunny.12 mph94%29.68 "HgN/A
7:20 AM59 °FPartly sunny.12 mph94%29.68 "HgN/A
6:50 AM59 °FPartly sunny.13 mph94%29.68 "HgN/A
Weather by CustomWeather, © 2015

See weather overviewHow to use our weather pages